TimeCDT,TemperatureF,Dew PointF,Humidity,Sea Level PressureIn,VisibilityMPH,Wind Direction,Wind SpeedMPH,Gust SpeedMPH,PrecipitationIn,Events,Conditions,WindDirDegrees,DateUTC
12:16 AM,55.4,50.0,82,29.87,10.0,Calm,Calm,-,N/A,,Mostly Cloudy,0,2013-06-17 05:16:00
12:36 AM,55.4,50.0,82,29.87,10.0,ESE,3.5,-,N/A,,Scattered Clouds,120,2013-06-17 05:36:00
12:56 AM,55.4,50.0,82,29.87,10.0,Calm,Calm,-,N/A,,Scattered Clouds,0,2013-06-17 05:56:00
1:16 AM,53.6,48.2,82,29.87,10.0,Calm,Calm,-,N/A,,Clear,0,2013-06-17 06:16:00
1:35 AM,53.6,48.2,82,29.87,10.0,Calm,Calm,-,N/A,,Scattered Clouds,0,2013-06-17 06:35:00
1:56 AM,53.6,48.2,82,29.87,10.0,SSE,3.5,-,N/A,,Mostly Cloudy,150,2013-06-17 06:56:00
2:16 AM,53.6,48.2,82,29.87,10.0,Calm,Calm,-,N/A,,Mostly Cloudy,0,2013-06-17 07:16:00
2:36 AM,53.6,50.0,88,29.87,10.0,South,3.5,-,N/A,,Mostly Cloudy,180,2013-06-17 07:36:00
2:56 AM,53.6,50.0,88,29.87,10.0,Calm,Calm,-,N/A,,Overcast,0,2013-06-17 07:56:00
3:15 AM,53.6,50.0,88,29.87,10.0,Calm,Calm,-,N/A,,Overcast,0,2013-06-17 08:15:00
3:36 AM,53.6,50.0,88,29.87,10.0,Calm,Calm,-,N/A,,Overcast,0,2013-06-17 08:36:00
3:56 AM,53.6,50.0,88,29.88,10.0,East,5.8,-,N/A,,Overcast,90,2013-06-17 08:56:00
4:16 AM,53.6,50.0,88,29.89,10.0,East,9.2,-,N/A,,Overcast,90,2013-06-17 09:16:00
4:36 AM,50.0,46.4,87,29.91,10.0,East,6.9,-,N/A,,Overcast,80,2013-06-17 09:36:00
4:55 AM,48.2,44.6,87,29.91,3.0,East,10.4,-,N/A,,Overcast,80,2013-06-17 09:55:00
5:16 AM,48.2,46.4,93,29.91,1.8,East,6.9,-,N/A,,Overcast,90,2013-06-17 10:16:00
5:36 AM,50.0,46.4,87,29.91,1.8,East,9.2,-,N/A,,Overcast,80,2013-06-17 10:36:00
5:55 AM,50.0,46.4,87,29.91,0.8,East,5.8,-,N/A,,Overcast,80,2013-06-17 10:55:00
6:16 AM,50.0,46.4,87,29.93,1.0,East,8.1,-,N/A,,Overcast,90,2013-06-17 11:16:00
6:36 AM,48.2,46.4,93,29.93,1.2,East,4.6,-,N/A,,Overcast,90,2013-06-17 11:36:00
6:55 AM,48.2,44.6,87,29.94,0.5,East,5.8,-,N/A,Fog,Fog,100,2013-06-17 11:55:00
7:16 AM,48.2,44.6,87,29.94,0.5,East,10.4,-,N/A,Fog,Fog,90,2013-06-17 12:16:00
7:36 AM,46.4,44.6,93,29.94,0.8,East,8.1,-,N/A,,Overcast,80,2013-06-17 12:36:00
7:56 AM,46.4,44.6,93,29.95,0.8,East,9.2,-,N/A,,Overcast,90,2013-06-17 12:56:00
8:16 AM,46.4,44.6,93,29.96,1.2,East,9.2,-,N/A,,Overcast,100,2013-06-17 13:16:00
8:36 AM,46.4,44.6,93,29.96,7.0,East,9.2,-,N/A,,Overcast,80,2013-06-17 13:36:00
8:56 AM,48.2,44.6,87,29.97,10.0,East,9.2,-,N/A,,Overcast,100,2013-06-17 13:56:00
9:15 AM,48.2,42.8,82,29.98,10.0,East,10.4,-,N/A,,Overcast,100,2013-06-17 14:15:00
9:36 AM,48.2,42.8,82,29.98,10.0,ENE,11.5,16.1,N/A,,Overcast,70,2013-06-17 14:36:00
9:56 AM,48.2,42.8,82,29.98,10.0,East,9.2,-,N/A,,Overcast,90,2013-06-17 14:56:00
10:16 AM,50.0,42.8,76,29.99,10.0,East,8.1,-,N/A,,Overcast,100,2013-06-17 15:16:00
10:36 AM,51.8,42.8,71,29.99,10.0,East,8.1,-,N/A,,Overcast,80,2013-06-17 15:36:00
10:56 AM,51.8,42.8,71,30.00,10.0,East,9.2,17.3,N/A,,Mostly Cloudy,80,2013-06-17 15:56:00
11:15 AM,51.8,42.8,71,30.00,10.0,East,9.2,-,N/A,,Mostly Cloudy,90,2013-06-17 16:15:00
11:36 AM,51.8,42.8,71,30.01,10.0,East,10.4,-,N/A,,Mostly Cloudy,100,2013-06-17 16:36:00
11:55 AM,51.8,42.8,71,30.01,10.0,ENE,13.8,18.4,N/A,,Overcast,60,2013-06-17 16:55:00
12:16 PM,53.6,42.8,67,30.02,10.0,East,11.5,-,N/A,,Overcast,90,2013-06-17 17:16:00
12:36 PM,53.6,42.8,67,30.02,10.0,East,13.8,17.3,N/A,,Overcast,100,2013-06-17 17:36:00
12:55 PM,53.6,42.8,67,30.02,10.0,East,9.2,-,N/A,,Mostly Cloudy,80,2013-06-17 17:55:00
1:16 PM,53.6,42.8,67,30.03,10.0,East,12.7,17.3,N/A,,Overcast,80,2013-06-17 18:16:00
1:35 PM,51.8,41.0,67,30.03,10.0,East,12.7,19.6,N/A,,Overcast,90,2013-06-17 18:35:00
1:56 PM,53.6,41.0,62,30.04,10.0,East,13.8,18.4,N/A,,Mostly Cloudy,90,2013-06-17 18:56:00
2:15 PM,53.6,41.0,62,30.04,10.0,ENE,15.0,21.9,N/A,,Scattered Clouds,70,2013-06-17 19:15:00
2:36 PM,53.6,42.8,67,30.04,10.0,East,13.8,19.6,N/A,,Clear,80,2013-06-17 19:36:00
2:56 PM,53.6,41.0,62,30.04,10.0,East,17.3,20.7,N/A,,Clear,80,2013-06-17 19:56:00
3:15 PM,55.4,41.0,58,30.04,10.0,East,13.8,19.6,N/A,,Scattered Clouds,80,2013-06-17 20:15:00
3:36 PM,55.4,39.2,54,30.05,10.0,East,10.4,17.3,N/A,,Clear,100,2013-06-17 20:36:00
3:55 PM,55.4,39.2,54,30.04,10.0,ENE,11.5,19.6,N/A,,Scattered Clouds,70,2013-06-17 20:55:00
4:16 PM,55.4,39.2,54,30.04,10.0,East,12.7,16.1,N/A,,Scattered Clouds,100,2013-06-17 21:16:00
4:36 PM,55.4,39.2,54,30.05,10.0,East,11.5,17.3,N/A,,Scattered Clouds,90,2013-06-17 21:36:00
4:56 PM,55.4,37.4,51,30.05,10.0,East,9.2,17.3,N/A,,Mostly Cloudy,90,2013-06-17 21:56:00
5:16 PM,55.4,37.4,51,30.05,10.0,ENE,10.4,19.6,N/A,,Mostly Cloudy,70,2013-06-17 22:16:00
5:36 PM,57.2,37.4,48,30.05,10.0,East,10.4,-,N/A,,Scattered Clouds,100,2013-06-17 22:36:00
5:56 PM,55.4,37.4,51,30.04,10.0,East,9.2,16.1,N/A,,Clear,100,2013-06-17 22:56:00
6:16 PM,57.2,35.6,44,30.05,10.0,East,10.4,-,N/A,,Clear,90,2013-06-17 23:16:00
6:35 PM,55.4,35.6,47,30.05,10.0,East,9.2,-,N/A,,Mostly Cloudy,80,2013-06-17 23:35:00
6:56 PM,55.4,35.6,47,30.05,10.0,East,12.7,-,N/A,,Overcast,90,2013-06-17 23:56:00
7:16 PM,53.6,33.8,47,30.06,10.0,East,9.2,-,N/A,,Overcast,100,2013-06-18 00:16:00
7:36 PM,51.8,33.8,50,30.07,10.0,East,6.9,-,N/A,,Mostly Cloudy,90,2013-06-18 00:36:00
7:56 PM,50.0,35.6,58,30.07,10.0,East,5.8,-,N/A,,Scattered Clouds,90,2013-06-18 00:56:00
8:15 PM,50.0,33.8,54,30.07,10.0,East,5.8,-,N/A,,Mostly Cloudy,80,2013-06-18 01:15:00
8:36 PM,48.2,33.8,58,30.07,10.0,East,4.6,-,N/A,,Overcast,100,2013-06-18 01:36:00
8:55 PM,48.2,33.8,58,30.07,10.0,East,4.6,-,N/A,,Mostly Cloudy,80,2013-06-18 01:55:00
9:16 PM,48.2,30.2,50,30.07,10.0,East,6.9,-,N/A,,Clear,80,2013-06-18 02:16:00
9:36 PM,46.4,30.2,53,30.08,10.0,NE,5.8,-,N/A,,Clear,50,2013-06-18 02:36:00
9:55 PM,46.4,30.2,53,30.09,10.0,Calm,Calm,-,N/A,,Clear,0,2013-06-18 02:55:00
10:16 PM,44.6,32.0,61,30.09,10.0,Calm,Calm,-,N/A,,Clear,0,2013-06-18 03:16:00
10:36 PM,42.8,33.8,70,30.09,10.0,Calm,Calm,-,N/A,,Clear,0,2013-06-18 03:36:00
10:55 PM,42.8,32.0,66,30.09,10.0,Calm,Calm,-,N/A,,Clear,0,2013-06-18 03:55:00
11:16 PM,44.6,30.2,57,30.10,10.0,Calm,Calm,-,N/A,,Clear,0,2013-06-18 04:16:00
11:36 PM,42.8,32.0,66,30.10,10.0,Calm,Calm,-,N/A,,Clear,0,2013-06-18 04:36:00
11:55 PM,44.6,30.2,57,30.10,10.0,Calm,Calm,-,N/A,,Clear,0,2013-06-18 04:55:00